TimeEST,TemperatureF,Dew PointF,Humidity,Sea Level PressureIn,VisibilityMPH,Wind Direction,Wind SpeedMPH,Gust SpeedMPH,PrecipitationIn,Events,Conditions,WindDirDegrees,DateUTC
12:56 AM,36.0,28.9,76,30.27,10.0,West,16.1,-,N/A,,Clear,260,2013-01-10 05:56:00
1:56 AM,35.1,27.0,72,30.32,10.0,West,11.5,-,N/A,,Clear,260,2013-01-10 06:56:00
2:56 AM,34.0,26.1,73,30.37,10.0,WSW,8.1,-,N/A,,Clear,250,2013-01-10 07:56:00
3:56 AM,33.1,24.1,70,30.38,10.0,WSW,6.9,-,N/A,,Clear,250,2013-01-10 08:56:00
4:56 AM,33.1,24.1,70,30.41,10.0,SW,6.9,-,N/A,,Clear,230,2013-01-10 09:56:00
5:56 AM,32.0,24.1,73,30.44,10.0,WSW,5.8,-,N/A,,Clear,250,2013-01-10 10:56:00
6:56 AM,30.0,24.1,79,30.47,10.0,WSW,3.5,-,N/A,,Clear,240,2013-01-10 11:56:00
7:56 AM,28.9,24.1,82,30.52,10.0,SW,5.8,-,N/A,,Clear,230,2013-01-10 12:56:00
8:56 AM,32.0,25.0,75,30.55,10.0,West,8.1,-,N/A,,Clear,260,2013-01-10 13:56:00
9:56 AM,36.0,27.0,70,30.57,10.0,WNW,12.7,-,N/A,,Clear,290,2013-01-10 14:56:00
10:56 AM,37.0,27.0,67,30.57,10.0,West,9.2,-,N/A,,Clear,270,2013-01-10 15:56:00
11:56 AM,37.0,26.1,65,30.55,10.0,West,9.2,-,N/A,,Clear,280,2013-01-10 16:56:00
12:56 PM,39.0,25.0,57,30.54,10.0,WNW,6.9,-,N/A,,Clear,290,2013-01-10 17:56:00
1:56 PM,39.0,24.1,55,30.55,10.0,WSW,4.6,-,N/A,,Clear,250,2013-01-10 18:56:00
2:56 PM,39.9,23.0,51,30.56,10.0,Calm,Calm,-,N/A,,Clear,0,2013-01-10 19:56:00
3:56 PM,35.1,26.1,70,30.56,10.0,West,5.8,-,N/A,,Clear,260,2013-01-10 20:56:00
4:56 PM,34.0,24.1,67,30.57,10.0,Calm,Calm,-,N/A,,Clear,0,2013-01-10 21:56:00
5:56 PM,25.0,21.0,85,30.57,10.0,Calm,Calm,-,N/A,,Clear,0,2013-01-10 22:56:00
6:56 PM,23.0,19.9,88,30.57,10.0,Calm,Calm,-,N/A,,Clear,0,2013-01-10 23:56:00
7:56 PM,25.0,21.0,85,30.57,10.0,East,5.8,-,N/A,,Clear,80,2013-01-11 00:56:00
8:56 PM,21.9,19.0,89,30.56,10.0,Calm,Calm,-,N/A,,Clear,0,2013-01-11 01:56:00
9:56 PM,19.9,17.1,89,30.56,10.0,Calm,Calm,-,N/A,,Clear,0,2013-01-11 02:56:00
10:56 PM,19.4,15.8,86,30.52,10.0,ENE,3.5,-,N/A,,Clear,70,2013-01-11 03:56:00
11:56 PM,21.2,19.4,93,30.50,10.0,East,5.8,-,N/A,,Clear,90,2013-01-11 04:56:00